Retour au catalogue

STARLINK-36788

ActifCommunicationsSSO
NORAD 67819·PAYLOAD·🇺🇸 United States

Lancé Feb 15, 2026 depuis Vandenberg Space Force Base

Loading…

Prochains Passages (prochaines 24 heures)

TLE

FraisSource: CelesTrak SupGP

Époque: Sep 15, 2026, 02:58 UTC

1 67819C 26032Y   26258.12409722 -.00047029  00000+0 -14597-2 0  2583
2 67819  97.2858  84.6031 0001669  92.0297 176.1124 15.33466525    18

Suivez STARLINK-36788 en temps réel avec AllMySat

Download on the App Store